Location: Dreilärchen
(47.9312°N, 8.6113°E)
Time: 21:48:56
(UTC+00:00)

CZ-2D R/B - Pass Details

Date: 26 May 2022
Orbit: 790 x 845 km, 98.7° (Epoch: 03 July)

Event Time Altitude Azimuth Distance (km) Brightness Sun altitude
Rises 00:51:40 0° 17° (NNE) 3,383 7.0 -18.1°
Reaches altitude 10° 00:54:06 10° 21° (NNE) 2,437 5.9 -18.0°
Maximum altitude 00:59:26 61° 101° (ESE) 928 2.4 -17.6°
Enters shadow 01:02:29 25° 174° (S) 1,587 3.1 -17.4°
